#timestamp,LO_Frequency,Hit,StdDev 
1521079215.7,286047000.0,N
1521079235.6,286047000.6,N
1521079255.4,286047000.9,N
1521079275.2,286047002.0,N
1521079295.1,286046999.8,N
1521079296.0,286046999.8,N
1521079315.8,286047002.8,N
1521079335.6,286047000.1,N
1521079355.5,286047000.7,N
1521079375.3,286047000.7,N
1521079395.2,286046998.2,N
1521079415.9,286047000.0,N
1521079435.7,286047000.1,N
1521079455.6,286047001.0,N
1521079475.4,286047000.3,N
1521079495.2,286047000.0,N
1521079515.1,286046999.7,N
1521079516.0,286046999.7,N
1521079535.8,286046998.8,N
1521079555.7,286046999.2,N
1521079575.5,286046998.7,N
1521079595.3,286046998.7,N
1521079615.2,286047000.7,N
1521079635.0,286046998.1,N
1521079635.9,286046998.1,N
1521079655.7,286046998.7,N
1521079675.6,286046999.6,N
1521079695.4,286046999.6,N
1521079715.3,286046996.8,N
1521079735.1,286046999.6,N
1521079736.0,286046999.6,N
1521079755.8,286046997.1,N
1521079775.7,286046996.6,N
1521079795.5,286046997.0,N
1521079815.3,286046999.4,N
1521079835.2,286046996.9,N
1521079855.0,286046997.7,N
1521079855.9,286046997.7,N
1521079875.8,286046995.5,Y
1521079895.6,286046995.2,P
1521079915.4,286046996.3,N
1521079935.3,286046993.3,P
1521079955.1,286046996.2,N
1521079975.9,286046997.8,N
1521079995.7,286046997.4,N
1521080015.5,286046995.8,N
1521080035.4,286046996.1,N
1521080055.2,286046996.2,N
1521080075.1,286046993.3,Y
1521080076.0,286046993.3,P
1521080095.8,286046998.5,N
1521080115.6,286047001.1,N
1521080135.5,286047000.8,N
1521080155.3,286047001.2,N
1521080175.1,286046998.7,N
1521080195.9,286047000.6,N
1521080215.7,286046999.1,N
1521080235.6,286046996.5,N
1521080255.4,286046999.5,N
1521080275.2,286046997.7,N
1521080295.1,286046994.9,N
1521080296.0,286046994.9,N
1521080315.8,286046996.1,N
1521080335.6,286046996.0,N
1521080355.5,286046993.4,N
1521080375.3,286046994.5,N
1521080395.2,286046991.9,Y
1521080415.9,286046995.6,P
1521080435.7,286046994.9,P
1521080455.6,286046995.3,P
1521080475.4,286046995.5,Y
1521080495.3,286047001.0,P
1521080515.1,286047001.0,N
1521080535.8,286047000.8,N
1521080555.7,286047000.7,N
1521080575.5,286046998.6,N
1521080595.4,286046999.5,N
1521080615.2,286046999.4,N
1521080635.0,286047000.8,N
1521080635.9,286047000.8,N
1521080655.8,286047000.9,N
1521080675.6,286047000.7,N
1521080695.4,286047001.2,N
1521080715.3,286047000.9,N
1521080735.1,286046999.0,N
1521080755.9,286046998.5,N
1521080775.7,286046999.0,N
1521080795.5,286046999.0,N
1521080815.4,286047000.7,N
1521080835.2,286047001.1,N
1521080855.1,286046998.8,N
1521080856.0,286046998.8,N
1521080875.8,286046996.9,N
1521080895.6,286046999.1,N
1521080915.5,286046999.1,N
1521080935.3,286046994.9,Y
1521080955.1,286046994.9,P
1521080975.9,286046995.4,N
1521080995.7,286046995.1,N
1521081015.6,286046995.3,N
1521081035.4,286046995.5,N
1521081055.2,286046995.2,N
1521081075.1,286046994.9,Y
1521081076.0,286046994.9,P
1521081095.8,286047000.6,N
1521081115.7,286047000.3,N
1521081135.5,286047002.4,N
1521081155.3,286047002.4,N
1521081175.2,286047004.4,N
1521081195.0,286047004.4,N
1521081195.9,286047004.4,N
1521081215.8,286047002.9,N
1521081235.6,286047005.5,N
1521081255.4,286047001.5,N
1521081275.3,286047002.5,N
1521081295.1,286047001.6,N
1521081296.0,286047001.6,N
1521081315.8,286047001.6,N
1521081335.7,286047003.3,N
1521081355.5,286047004.4,N
1521081375.4,286047004.2,N
1521081395.2,286047001.7,N
1521081415.0,286047001.4,N
1521081415.9,286047001.4,N
1521081435.8,286047002.6,N
1521081455.6,286047002.5,N
1521081475.4,286047001.5,N
1521081495.3,286047003.6,N
1521081515.1,286047004.0,N
1521081535.9,286047003.3,N
1521081555.7,286047005.4,N
1521081575.5,286047006.9,N
1521081595.4,286047005.0,N
1521081615.2,286047004.7,N
1521081635.0,286047007.5,Y
1521081635.9,286047007.5,P
1521081655.8,286047003.8,N
1521081675.6,286047004.3,N
1521081695.5,286047003.7,N
1521081715.3,286047005.5,Y
1521081735.1,286046998.4,P
1521081755.9,286046998.5,N
1521081775.7,286046998.1,N
1521081795.5,286046998.6,N
1521081815.4,286046997.0,N
1521081835.2,286046999.0,N
1521081855.1,286047000.3,N
1521081856.0,286047000.3,N
1521081875.8,286047001.2,N
1521081895.6,286046998.3,N
1521081915.5,286046998.1,N
1521081935.3,286046998.8,N
1521081955.2,286046998.1,N
1521081975.9,286047000.3,N
1521081995.7,286047000.3,N
1521082015.6,286046999.8,N
1521082035.4,286047000.3,N
1521082055.3,286046999.8,N
1521082075.1,286047002.4,N
1521082076.0,286047002.4,N
1521082095.8,286047001.1,N
1521082115.7,286047000.0,N
1521082135.5,286047000.4,N
1521082155.4,286047002.6,N
1521082175.2,286047002.6,N
1521082195.0,286047000.4,N
1521082195.9,286047000.4,N
1521082215.8,286047002.7,N
1521082235.6,286047002.3,N
1521082255.5,286047000.2,N
1521082275.3,286046999.8,N
1521082295.1,286047002.5,N
1521082315.9,286047001.7,N
1521082335.7,286047002.6,N
1521082355.6,286047002.3,N
1521082375.4,286047000.1,N
1521082395.2,286047002.8,N
1521082415.1,286047000.2,N
1521082416.0,286047000.2,N
1521082435.8,286046999.7,N
1521082455.7,286046998.5,N
1521082475.5,286047002.6,N
1521082495.3,286047004.0,N
1521082515.2,286047003.6,N
1521082535.0,286047001.4,N
1521082535.9,286047001.4,N
1521082555.8,286047004.1,Y
1521082575.6,286046999.9,P
1521082625.4,286047004.4,E
1521082635.4,286047000.9,N
1521082655.2,286046996.7,P
1521082675.0,286046999.6,N
1521082675.9,286046999.6,N
1521082695.8,286046999.5,N
1521082715.6,286046996.5,N
1521082735.5,286046998.4,N
1521082755.3,286046999.1,N
1521082775.1,286046997.2,N
1521082795.9,286046997.4,N
